Wind_Speed
3 4 4 3 3 2 3 6 8 8 8 8 8 6 7 8 7 7 8 8 8 8 8 9 9 8 8 9 9 8 8 7 7 7 8 8 8 9 9 9 9 9 10 9 9 8 7 6 6
0 1 1 2 3 1 2 5 6 9 10 10 10 9 8 7 7 7 8 8 8 9 9 9 9 9 9 9 9 8 8 8 8 8 8 8 9 9 9 10 9 10 10 10 10 9 8 7 6
2 1 1 1 2 2 3 4 5 9 11 13 14 13 12 9 8 9 9 9 9 9 10 10 10 10 10 9 9 9 9 9 9 9 9 9 9 10 10 11 10 10 10 11 11 11 10 9 8
5 3 2 3 3 2 3 3 4 8 13 15 17 16 14 11 11 11 12 11 10 10 10 10 10 11 11 10 10 10 10 11 11 10 10 10 10 11 11 12 11 11 11 11 11 12 11 10 9
7 6 4 5 5 4 4 5 5 8 13 16 18 19 16 14 13 13 13 12 12 11 10 10 11 11 11 11 11 11 12 12 12 12 12 12 12 12 13 13 13 13 13 13 13 13 13 13 12
10 8 6 6 5 4 3 6 9 12 16 18 19 20 19 17 16 15 14 14 13 12 11 11 12 12 12 12 12 13 13 13 13 13 13 13 13 14 14 14 14 14 14 14 15 15 15 14 14
13 10 7 7 6 5 3 6 10 14 18 20 21 21 21 19 17 15 15 15 15 14 13 12 12 12 13 13 14 14 14 14 14 14 14 15 15 15 15 16 16 15 16 16 15 16 16 16 16
16 12 10 10 10 8 7 9 12 16 19 22 22 23 23 22 20 18 16 16 16 15 14 15 14 13 13 14 14 15 15 15 16 16 16 16 16 16 16 17 17 17 17 17 17 17 17 17 17
19 14 12 13 14 12 12 13 15 18 21 23 25 26 26 25 22 20 18 18 18 17 17 16 15 15 15 15 16 16 17 17 17 17 18 17 17 17 18 18 19 19 19 19 19 19 18 19 19
21 16 14 17 18 17 16 16 17 20 23 25 27 29 29 27 25 23 22 21 20 20 20 18 17 17 17 18 18 19 19 20 19 20 20 20 19 19 20 20 20 21 21 20 20 21 21 21 21
22 18 16 19 20 20 19 19 19 23 26 28 30 30 29 28 28 26 26 24 22 22 21 20 20 20 20 21 21 22 22 22 22 23 23 23 22 22 22 22 22 22 22 22 21 22 23 23 24
23 20 18 19 22 22 22 21 22 25 27 29 30 30 30 30 29 29 28 25 24 23 23 23 23 23 24 23 24 23 23 24 25 26 26 26 25 25 25 25 25 25 25 24 24 24 24 24 26
24 21 19 19 21 21 22 23 24 26 27 28 29 29 30 30 30 30 29 27 26 24 24 24 25 26 25 25 26 25 25 27 28 29 29 29 28 28 28 27 28 28 28 27 26 26 26 25 26
22 20 18 17 17 18 20 20 22 23 24 25 27 28 28 29 29 29 28 28 26 26 26 26 27 27 27 27 28 27 28 30 30 30 30 30 30 30 31 30 30 30 30 29 28 28 27 27 27
18 16 14 13 13 14 16 18 19 19 22 23 24 26 27 28 28 27 27 27 25 25 26 26 27 28 29 28 29 29 30 31 32 31 31 30 31 31 32 31 31 32 31 30 29 27 27 27 28
13 11 10 10 10 12 16 17 18 19 21 22 24 25 26 27 26 25 25 26 25 26 27 27 28 29 28 29 31 31 31 32 33 33 33 34 34 34 33 32 32 32 31 30 29 27 27 27 27
8 9 9 9 10 13 16 18 20 20 21 22 23 24 24 25 25 25 26 25 25 25 26 27 28 29 29 30 31 32 33 34 35 35 36 35 34 34 33 33 34 32 31 30 30 29 28 27 28
8 8 8 7 11 14 18 21 23 23 24 23 24 23 21 21 21 23 24 23 23 24 25 26 28 29 30 31 32 33 34 35 35 36 36 36 36 35 35 34 33 32 31 31 31 30 29 28 28
7 6 7 9 13 16 20 24 26 25 24 23 22 21 18 17 18 19 19 21 22 24 25 26 27 29 30 31 33 34 35 36 37 36 36 37 37 37 36 35 33 32 32 31 32 31 31 29 29
7 7 10 13 15 18 21 24 25 24 24 24 20 19 16 16 15 16 17 19 21 23 25 27 28 30 31 33 34 35 36 36 36 37 37 37 37 37 37 36 35 34 33 33 33 32 32 31 32
6 8 10 12 14 17 19 22 24 25 26 25 21 18 13 12 13 15 17 19 21 23 25 26 28 30 32 33 34 35 36 37 37 38 38 38 37 37 37 37 36 35 35 34 33 32 32 32 32
8 10 11 14 16 20 21 24 25 26 25 22 19 11 8 10 13 15 17 19 21 22 23 25 27 29 31 33 34 35 36 37 37 38 38 37 37 37 37 37 36 36 35 35 34 32 32 33 33
10 11 12 14 16 19 21 24 25 22 20 18 13 7 8 11 14 16 18 20 22 23 25 27 28 30 32 33 34 35 36 36 37 37 37 36 36 36 36 36 35 35 35 35 34 34 34 35 35
8 10 11 12 14 16 17 19 17 13 11 11 9 7 10 13 16 18 19 21 23 25 26 28 29 31 32 33 34 34 35 35 36 35 35 35 35 35 35 35 35 34 35 35 35 35 35 35 35
7 8 9 11 12 12 13 13 13 13 11 9 10 11 13 15 18 20 22 24 25 27 28 29 30 31 31 32 33 34 34 34 35 34 35 35 35 35 35 36 36 36 36 36 36 36 37 37 37
7 7 7 8 9 10 10 11 13 13 12 11 13 15 17 18 21 23 25 27 29 30 31 31 31 31 32 33 34 35 35 36 36 36 36 37 37 37 37 37 37 37 37 37 38 38 38 39 38
5 6 7 8 9 10 10 10 12 14 14 14 16 18 20 23 25 26 28 30 32 33 33 34 34 34 35 36 36 37 37 37 37 38 38 39 39 39 39 39 39 40 40 40 40 40 40 40 40
7 7 7 7 8 9 9 11 13 14 16 18 19 21 23 26 27 29 31 33 34 35 36 37 38 38 38 38 38 38 38 38 39 39 39 40 40 40 40 41 41 41 42 42 42 42 42 43 42
6 7 7 8 8 10 12 13 15 16 18 20 22 24 27 29 30 32 33 35 37 38 39 40 40 40 40 40 39 39 39 39 39 40 40 40 40 41 42 42 42 42 43 43 43 43 44 44 44
4 6 7 8 9 11 14 15 16 18 20 22 25 27 29 31 32 34 36 38 39 40 40 41 41 41 42 41 40 40 40 40 40 39 39 40 40 41 42 42 43 43 44 44 45 46 46 46 46
Wind_Direction
96 100 89 81 68 68 43 41 28 8 355 353 352 349 354 356 353 344 337 340 339 341 337 332 328 327 325 322 320 320 320 320 321 324 327 326 328 330 330 331 332 331 329 328 327 327 329 331 336
271 125 97 42 17 7 34 49 31 359 344 339 338 335 338 342 339 336 335 336 339 339 333 327 324 322 321 317 315 314 313 312 313 316 318 316 316 320 321 321 322 322 320 317 316 314 314 315 316
283 262 196 357 317 336 25 42 5 343 335 331 329 329 326 323 324 327 329 329 332 333 331 324 320 316 315 312 310 310 308 307 307 309 311 310 308 308 310 310 310 311 313 311 308 304 303 303 302
287 271 247 249 275 319 356 10 346 326 321 321 319 317 318 317 320 323 324 321 320 322 322 317 313 310 308 305 303 303 302 300 301 302 303 304 303 301 302 303 302 302 301 302 301 298 296 294 291
288 273 259 261 275 291 325 350 319 304 301 306 309 312 316 317 318 318 319 318 316 315 315 312 308 305 302 300 299 298 297 296 296 297 298 299 298 297 296 295 296 296 295 291 293 292 289 287 285
288 278 257 257 267 292 333 329 315 300 295 300 304 304 308 310 310 310 310 309 311 311 309 307 306 302 301 299 298 299 297 296 295 295 295 296 295 295 294 293 291 289 291 286 283 286 283 282 280
287 281 254 241 250 270 283 301 292 284 292 297 300 304 309 309 307 307 307 306 308 307 305 303 301 299 299 297 296 298 299 298 296 295 294 294 294 294 293 290 290 287 285 284 280 279 277 276 276
282 278 253 240 241 251 253 264 274 280 288 293 299 303 307 306 304 304 305 305 302 300 300 304 301 300 300 300 300 300 300 301 299 296 294 294 293 292 291 290 289 287 283 281 278 276 271 272 272
279 273 252 238 240 245 248 253 265 274 281 287 294 299 305 304 302 301 298 298 297 294 294 298 296 297 299 299 302 302 302 303 300 298 296 294 293 293 292 290 288 287 284 281 276 272 268 269 269
276 271 247 239 243 245 249 256 266 271 278 284 290 294 298 298 298 298 295 293 291 291 289 288 289 290 293 296 298 300 301 300 299 298 296 293 292 292 293 292 290 287 285 283 278 273 268 267 266
271 266 249 241 244 246 249 254 261 268 275 281 285 289 290 291 293 293 291 290 287 287 288 285 289 286 286 289 292 293 296 296 297 296 294 292 291 291 290 290 290 289 287 283 279 275 271 266 263
265 262 252 243 244 247 249 253 257 264 271 278 283 286 288 290 291 290 288 283 288 287 284 286 285 286 283 281 283 287 289 292 293 292 292 290 287 288 288 288 288 288 285 282 280 275 271 268 264
260 257 250 246 245 247 249 253 259 263 269 275 279 284 287 290 291 292 291 288 287 284 285 285 286 289 284 281 281 284 285 288 288 289 287 288 286 286 286 286 285 284 283 280 278 277 271 270 267
256 254 249 243 242 244 248 253 259 266 272 275 278 282 285 288 291 292 292 290 285 284 285 287 288 288 286 285 284 285 285 286 287 288 288 287 285 286 286 284 283 282 280 278 274 275 272 270 271
250 248 243 237 239 241 249 255 262 271 277 281 284 285 287 290 289 289 289 287 286 287 288 288 290 291 291 289 288 290 291 289 291 292 292 287 286 288 286 284 283 282 280 275 273 274 270 270 268
237 232 224 228 235 240 251 258 266 271 276 281 286 287 286 287 288 287 290 292 289 288 290 292 293 294 292 291 294 295 296 294 292 292 291 288 286 287 287 285 286 284 278 274 273 272 269 269 267
209 209 212 224 235 243 252 260 269 273 277 282 287 286 282 284 286 288 291 291 289 288 290 292 293 294 294 293 295 295 294 294 293 290 289 287 288 289 289 287 286 282 276 274 272 272 269 269 265
195 209 213 237 249 248 255 263 271 273 274 277 284 285 282 282 287 289 291 291 291 292 294 295 296 296 296 295 294 294 293 293 292 291 289 288 288 288 288 287 287 280 273 271 270 269 267 267 264
209 219 236 250 256 255 258 264 269 272 276 273 279 279 278 278 284 291 296 296 296 297 297 297 297 296 295 294 293 292 291 290 290 290 289 288 287 286 285 284 282 280 275 271 269 267 265 265 261
232 258 262 248 251 255 258 264 272 278 283 284 283 280 280 282 288 296 299 298 297 298 298 298 297 296 295 295 293 292 291 291 290 289 289 288 286 284 282 280 279 277 273 270 268 266 264 262 260
256 270 273 273 267 272 278 282 286 289 292 294 294 284 278 284 292 296 298 299 301 299 297 297 297 296 296 295 294 293 293 292 290 289 288 287 284 283 281 280 278 275 272 270 267 265 261 259 258
243 253 268 281 288 291 296 299 301 297 296 300 299 291 280 290 300 306 310 310 309 305 303 301 299 298 297 296 294 293 293 292 291 289 288 286 285 283 280 279 276 274 271 270 267 264 260 257 255
239 248 260 271 281 287 293 300 307 304 295 300 302 306 305 311 319 320 320 318 314 310 308 305 303 301 300 298 296 295 294 293 291 290 288 287 284 282 280 278 275 273 270 267 266 263 259 257 255
248 256 268 274 282 290 300 308 320 324 321 328 340 340 337 331 331 329 325 322 319 316 313 311 308 306 304 302 300 299 297 295 293 291 289 288 285 283 280 278 275 272 269 266 264 261 259 257 254
267 270 276 277 286 301 317 333 348 353 345 354 2 357 343 336 336 335 332 329 326 323 320 317 314 311 308 306 304 302 300 298 295 292 291 289 286 284 282 279 276 273 270 267 265 261 259 256 254
281 291 296 305 312 324 341 355 357 2 5 5 360 354 346 343 341 339 335 332 329 326 324 321 318 315 312 309 307 304 302 299 297 293 291 288 286 283 281 279 276 274 271 268 265 263 259 256 254
304 305 311 313 319 322 332 341 354 1 4 359 355 350 346 346 344 339 335 332 330 328 326 324 321 319 316 313 310 307 304 301 298 295 292 289 286 283 281 279 277 274 271 268 265 262 260 257 254
313 322 325 316 318 324 336 348 354 358 359 356 353 349 347 345 341 337 334 333 331 330 328 326 323 320 318 315 312 309 306 303 300 297 294 291 288 285 283 280 278 275 272 268 266 262 259 256 254
319 321 326 322 328 334 339 346 351 355 355 353 350 347 345 341 338 336 334 332 331 330 328 326 323 321 318 316 314 311 308 305 302 299 295 292 290 287 285 282 279 276 273 269 266 262 259 256 253
331 339 342 339 340 342 344 348 349 351 351 349 346 343 340 338 336 334 333 331 330 329 327 325 324 322 320 317 315 313 310 308 305 302 299 295 292 290 288 285 281 277 273 269 265 263 259 256 254
Height
5937 5936 5935 5936 5936 5935 5933 5932 5931 5931 5931 5930 5930 5930 5929 5929 5928 5929 5926 5924 5923 5922 5921 5920 5920 5919 5918 5917 5917 5916 5915 5914 5913 5912 5911 5910 5910 5909 5908 5907 5906 5905 5903 5902 5901 5900 5900 5899 5899
5936 5935 5936 5935 5935 5933 5932 5931 5930 5929 5929 5928 5929 5929 5929 5928 5927 5925 5924 5923 5922 5921 5920 5920 5919 5918 5917 5916 5915 5914 5914 5912 5911 5911 5910 5909 5908 5907 5906 5905 5904 5903 5902 5901 5900 5899 5899 5898 5898
5935 5934 5935 5934 5933 5932 5931 5930 5928 5927 5927 5927 5927 5927 5927 5927 5925 5924 5923 5922 5921 5920 5919 5919 5918 5917 5916 5915 5914 5913 5912 5911 5910 5909 5908 5907 5907 5906 5905 5904 5903 5902 5901 5900 5899 5898 5898 5897 5897
5934 5934 5934 5934 5932 5930 5928 5927 5926 5925 5925 5925 5925 5925 5925 5925 5924 5922 5921 5920 5919 5919 5918 5917 5916 5915 5914 5913 5912 5911 5910 5909 5908 5907 5906 5906 5905 5904 5903 5902 5901 5900 5899 5898 5897 5896 5896 5895 5895
5933 5932 5932 5931 5930 5929 5926 5924 5924 5924 5924 5923 5924 5923 5922 5923 5922 5920 5919 5918 5918 5917 5916 5915 5914 5913 5912 5911 5910 5909 5908 5907 5906 5905 5904 5903 5902 5901 5900 5900 5899 5898 5897 5896 5895 5894 5894 5893 5893
5931 5931 5931 5930 5928 5926 5925 5924 5923 5923 5922 5922 5922 5922 5921 5921 5920 5918 5917 5916 5915 5915 5914 5913 5912 5911 5910 5909 5907 5906 5905 5904 5903 5902 5901 5900 5899 5898 5897 5896 5896 5895 5894 5893 5892 5891 5891 5890 5890
5929 5929 5928 5928 5926 5923 5923 5923 5922 5921 5920 5920 5919 5919 5918 5918 5918 5916 5914 5913 5913 5912 5911 5910 5909 5908 5907 5906 5904 5903 5902 5900 5899 5898 5897 5896 5895 5894 5893 5893 5892 5891 5890 5889 5889 5888 5888 5887 5887
5925 5927 5926 5924 5923 5921 5920 5919 5920 5918 5918 5917 5916 5916 5915 5914 5914 5914 5913 5912 5910 5909 5908 5907 5906 5905 5904 5902 5901 5900 5898 5897 5896 5894 5893 5892 5891 5890 5889 5888 5887 5886 5886 5885 5884 5884 5884 5883 5883
5921 5924 5923 5921 5919 5918 5917 5916 5916 5915 5915 5914 5913 5913 5912 5911 5910 5910 5910 5910 5908 5906 5905 5903 5902 5901 5900 5899 5897 5896 5895 5893 5892 5890 5889 5888 5887 5886 5885 5884 5883 5882 5881 5880 5880 5879 5879 5879 5879
5917 5919 5919 5917 5916 5915 5914 5913 5913 5912 5911 5910 5910 5909 5908 5907 5906 5906 5905 5905 5904 5902 5900 5898 5898 5897 5896 5894 5893 5892 5890 5889 5887 5886 5884 5883 5882 5881 5880 5878 5877 5876 5875 5875 5874 5874 5874 5874 5874
5912 5914 5914 5913 5911 5910 5910 5910 5910 5909 5908 5907 5906 5905 5904 5903 5902 5901 5900 5900 5899 5897 5895 5894 5893 5892 5890 5889 5888 5886 5885 5884 5882 5881 5879 5878 5876 5875 5874 5873 5871 5870 5869 5868 5868 5868 5868 5868 5868
5906 5907 5908 5908 5907 5906 5906 5906 5906 5905 5904 5903 5902 5900 5899 5898 5897 5896 5894 5893 5893 5892 5891 5890 5888 5886 5884 5882 5881 5880 5879 5878 5876 5875 5873 5871 5870 5869 5868 5867 5865 5864 5863 5862 5861 5861 5861 5861 5861
5900 5901 5902 5902 5902 5902 5902 5902 5902 5900 5900 5899 5897 5896 5894 5893 5891 5889 5888 5887 5886 5885 5884 5884 5882 5880 5877 5876 5874 5873 5872 5871 5869 5867 5866 5864 5862 5861 5860 5860 5859 5857 5856 5855 5854 5854 5854 5854 5854
5894 5895 5896 5897 5897 5897 5897 5897 5897 5896 5895 5895 5894 5892 5891 5889 5887 5885 5883 5882 5880 5879 5878 5877 5875 5873 5872 5870 5868 5866 5864 5863 5861 5860 5858 5856 5854 5853 5853 5852 5851 5849 5848 5847 5847 5847 5847 5847 5847
5889 5891 5893 5893 5893 5893 5893 5892 5892 5892 5891 5891 5890 5888 5887 5885 5882 5880 5878 5876 5873 5873 5871 5870 5869 5867 5865 5863 5862 5858 5856 5855 5854 5852 5849 5847 5846 5846 5844 5843 5842 5841 5840 5839 5839 5839 5839 5840 5840
5886 5888 5889 5889 5889 5889 5890 5888 5887 5887 5887 5886 5885 5883 5882 5880 5878 5875 5874 5871 5869 5868 5866 5864 5862 5860 5858 5856 5854 5851 5849 5848 5846 5844 5842 5840 5838 5837 5836 5835 5833 5832 5831 5831 5832 5832 5832 5832 5832
5882 5884 5885 5886 5886 5885 5885 5883 5882 5882 5882 5882 5881 5879 5877 5875 5873 5871 5868 5867 5864 5862 5861 5859 5857 5854 5852 5850 5848 5845 5844 5842 5838 5836 5834 5831 5830 5829 5827 5826 5825 5824 5823 5823 5824 5824 5824 5824 5824
5880 5881 5881 5881 5882 5881 5880 5879 5878 5878 5877 5876 5876 5873 5871 5870 5868 5866 5863 5861 5860 5858 5856 5854 5852 5849 5847 5844 5842 5839 5837 5834 5832 5829 5826 5824 5822 5820 5819 5818 5817 5816 5815 5815 5815 5815 5815 5816 5816
5876 5877 5877 5878 5877 5877 5876 5875 5874 5873 5871 5870 5869 5867 5865 5865 5864 5862 5859 5857 5855 5853 5851 5848 5846 5843 5841 5838 5835 5832 5829 5826 5823 5820 5818 5815 5813 5812 5810 5809 5808 5807 5807 5807 5807 5807 5807 5808 5808
5873 5874 5874 5874 5873 5873 5872 5871 5870 5868 5866 5864 5863 5863 5863 5862 5860 5858 5856 5853 5851 5849 5845 5842 5839 5836 5833 5830 5827 5824 5821 5818 5815 5812 5809 5807 5804 5802 5801 5800 5799 5798 5798 5798 5798 5797 5798 5799 5800
5871 5871 5871 5871 5870 5869 5868 5868 5866 5864 5862 5861 5859 5858 5858 5858 5856 5854 5852 5850 5847 5844 5840 5837 5833 5830 5826 5822 5818 5815 5812 5808 5806 5802 5799 5797 5795 5793 5792 5790 5789 5788 5788 5788 5788 5788 5789 5790 5791
5870 5869 5869 5869 5869 5868 5867 5865 5863 5861 5860 5857 5856 5855 5855 5854 5853 5850 5847 5844 5841 5838 5835 5831 5827 5822 5818 5814 5810 5806 5803 5799 5796 5793 5790 5787 5785 5783 5781 5780 5779 5778 5778 5778 5778 5778 5780 5781 5782
5867 5867 5868 5868 5868 5867 5866 5864 5861 5856 5855 5854 5852 5852 5851 5850 5848 5845 5842 5839 5836 5832 5828 5824 5819 5815 5811 5806 5802 5797 5793 5790 5786 5783 5780 5777 5775 5773 5771 5770 5769 5768 5768 5768 5769 5769 5770 5772 5773
5865 5866 5866 5867 5866 5865 5863 5861 5857 5853 5852 5851 5850 5849 5847 5846 5844 5841 5837 5833 5830 5825 5821 5817 5812 5807 5802 5797 5793 5788 5784 5780 5776 5772 5769 5767 5764 5762 5760 5759 5758 5758 5757 5757 5758 5758 5760 5761 5763
5864 5864 5865 5864 5863 5862 5860 5858 5856 5851 5850 5849 5848 5846 5844 5842 5840 5836 5832 5828 5823 5819 5814 5809 5804 5799 5794 5789 5784 5779 5775 5770 5766 5763 5759 5756 5754 5752 5749 5748 5747 5746 5746 5746 5746 5747 5748 5750 5752
5862 5863 5863 5862 5860 5859 5858 5856 5854 5850 5849 5847 5845 5843 5841 5838 5834 5830 5826 5822 5817 5812 5807 5801 5796 5791 5786 5780 5775 5770 5765 5761 5756 5753 5749 5746 5743 5741 5738 5737 5735 5734 5734 5734 5734 5735 5736 5738 5740
5861 5861 5860 5859 5857 5856 5855 5854 5852 5849 5847 5845 5842 5840 5836 5833 5829 5825 5820 5815 5810 5804 5798 5793 5787 5782 5777 5771 5765 5760 5755 5750 5746 5742 5738 5734 5731 5729 5726 5724 5723 5722 5721 5721 5722 5722 5723 5725 5727
5860 5859 5858 5857 5855 5854 5852 5851 5850 5847 5844 5841 5838 5835 5832 5828 5824 5819 5814 5809 5803 5797 5791 5784 5779 5773 5767 5761 5755 5750 5745 5739 5735 5730 5726 5722 5719 5716 5713 5711 5709 5708 5707 5707 5707 5708 5710 5711 5714
5859 5858 5857 5855 5854 5852 5850 5851 5847 5844 5841 5838 5835 5831 5827 5823 5819 5814 5809 5803 5796 5790 5783 5777 5770 5764 5758 5752 5745 5739 5734 5728 5723 5718 5714 5709 5705 5702 5699 5696 5694 5693 5692 5691 5692 5693 5694 5697 5699
5857 5856 5855 5854 5852 5850 5849 5850 5844 5841 5838 5835 5831 5827 5823 5819 5814 5809 5803 5797 5790 5784 5777 5770 5763 5756 5749 5742 5735 5729 5723 5717 5712 5706 5701 5697 5693 5688 5685 5681 5679 5677 5676 5675 5676 5677 5678 5681 5684